| time (UTC) | temp C | wind direction | speed KPH | gust KPH | rain 1hr cm | rain 24hr cm | rain mn cm | humidity % | barometer mb |
| 20260506051401 | 0 | 127 | 0.0 | 8.0 | 0.00 | 0.00 | 0.00 | 67 | 1014.4 |
| 20260506050901 | 0 | 157 | 3.2 | 8.0 | 0.00 | 0.00 | 0.00 | 66 | 1014.3 |
| 20260506050402 | 0 | 158 | 3.2 | 6.4 | 0.00 | 0.00 | 0.00 | 66 | 1014.3 |
| 20260506044901 | 0 | 120 | 0.0 | 4.8 | 0.00 | 0.00 | 0.00 | 68 | 1014.2 |
| 20260506043900 | 0 | 152 | 3.2 | 8.0 | 0.00 | 0.00 | 0.00 | 66 | 1014.5 |
| 20260506043402 | 0 | 180 | 3.2 | 9.7 | 0.00 | 0.00 | 0.00 | 68 | 1014.4 |
| 20260506042902 | 0 | 165 | 3.2 | 9.7 | 0.00 | 0.00 | 0.00 | 67 | 1014.5 |
| 20260506042403 | 0 | 145 | 0.0 | 8.0 | 0.00 | 0.00 | 0.00 | 67 | 1014.4 |
| 20260506041901 | 0 | 209 | 1.6 | 9.7 | 0.00 | 0.00 | 0.00 | 66 | 1014.5 |
| 20260506041402 | 0 | 132 | 3.2 | 9.7 | 0.00 | 0.00 | 0.00 | 67 | 1014.5 |
| 20260506040902 | 0 | 164 | 1.6 | 8.0 | 0.00 | 0.00 | 0.00 | 67 | 1014.5 |
| 20260506040401 | 0 | 170 | 3.2 | 8.0 | 0.00 | 0.00 | 0.00 | 67 | 1014.3 |
| 20260506035900 | 1 | 180 | 1.6 | 8.0 | 0.00 | 0.00 | 0.00 | 68 | 1014.4 |
| 20260506035402 | 0 | 144 | 3.2 | 8.0 | 0.00 | 0.00 | 0.00 | 67 | 1014.4 |
| 20260506034903 | 1 | 142 | 3.2 | 8.0 | 0.00 | 0.00 | 0.00 | 68 | 1014.4 |
| 20260506034401 | 1 | 176 | 3.2 | 8.0 | 0.00 | 0.00 | 0.00 | 68 | 1014.4 |
| 20260506033901 | 1 | 147 | 3.2 | 6.4 | 0.00 | 0.00 | 0.00 | 69 | 1014.1 |
| 20260506033401 | 1 | 154 | 1.6 | 8.0 | 0.00 | 0.00 | 0.00 | 68 | 1014.4 |
| 20260506032900 | 1 | 106 | 0.0 | 9.7 | 0.00 | 0.00 | 0.00 | 69 | 1014.4 |
| 20260506032358 | 1 | 188 | 3.2 | 9.7 | 0.00 | 0.00 | 0.00 | 67 | 1014.5 |
| 20260506031857 | 1 | 180 | 0.0 | 12.9 | 0.00 | 0.00 | 0.00 | 67 | 1014.4 |
| 20260506031358 | 1 | 122 | 3.2 | 12.9 | 0.00 | 0.00 | 0.00 | 66 | 1014.1 |
| 20260506030857 | 1 | 160 | 0.0 | 12.9 | 0.00 | 0.00 | 0.00 | 67 | 1014.2 |
| 20260506030357 | 1 | 131 | 1.6 | 12.9 | 0.00 | 0.00 | 0.00 | 66 | 1014.3 |
| 20260506025858 | 1 | 180 | 1.6 | 8.0 | 0.00 | 0.00 | 0.00 | 66 | 1014.1 |
| 20260506024358 | 1 | 157 | 1.6 | 9.7 | 0.00 | 0.00 | 0.00 | 66 | 1014.0 |
| 20260506023856 | 1 | 147 | 3.2 | 11.3 | 0.00 | 0.00 | 0.00 | 66 | 1014.1 |
| 20260506023354 | 1 | 120 | 0.0 | 11.3 | 0.00 | 0.00 | 0.00 | 66 | 1013.9 |
| 20260506022855 | 1 | 99 | 3.2 | 8.0 | 0.00 | 0.00 | 0.00 | 66 | 1013.9 |
| 20260506022354 | 1 | 126 | 1.6 | 6.4 | 0.00 | 0.00 | 0.00 | 66 | 1013.5 |
| 20260506021854 | 1 | 170 | 3.2 | 4.8 | 0.00 | 0.00 | 0.00 | 66 | 1013.7 |
| 20260506021357 | 1 | 180 | 3.2 | 6.4 | 0.00 | 0.00 | 0.00 | 66 | 1013.5 |
| 20260506020855 | 1 | 146 | 3.2 | 6.4 | 0.00 | 0.00 | 0.00 | 66 | 1013.5 |
| 20260506020356 | 1 | 113 | 0.0 | 8.0 | 0.00 | 0.00 | 0.00 | 65 | 1013.5 |
| 20260506015355 | 1 | 180 | 3.2 | 6.4 | 0.00 | 0.00 | 0.00 | 64 | 1013.7 |
| 20260506014358 | 1 | 80 | 3.2 | 9.7 | 0.00 | 0.00 | 0.00 | 65 | 1013.4 |
| 20260506013854 | 1 | 175 | 0.0 | 9.7 | 0.00 | 0.00 | 0.00 | 65 | 1013.4 |
| 20260506013355 | 1 | 177 | 0.0 | 9.7 | 0.00 | 0.00 | 0.00 | 65 | 1013.4 |
| 20260506012356 | 1 | 148 | 4.8 | 8.0 | 0.00 | 0.00 | 0.00 | 65 | 1013.3 |
| 20260506011856 | 1 | 90 | 1.6 | 8.0 | 0.00 | 0.00 | 0.00 | 66 | 1013.1 |
| 20260506011353 | 1 | 177 | 3.2 | 8.0 | 0.00 | 0.00 | 0.00 | 65 | 1013.3 |
| 20260506010854 | 1 | 148 | 1.6 | 6.4 | 0.00 | 0.00 | 0.00 | 65 | 1013.2 |
| 20260506005353 | 1 | 157 | 3.2 | 8.0 | 0.00 | 0.00 | 0.00 | 64 | 1012.8 |
| 20260506004854 | 1 | 161 | 6.4 | 12.9 | 0.00 | 0.00 | 0.00 | 64 | 1013.1 |
| 20260506004349 | 1 | 150 | 3.2 | 14.5 | 0.00 | 0.00 | 0.00 | 64 | 1012.9 |
| 20260506003849 | 1 | 171 | 4.8 | 14.5 | 0.00 | 0.00 | 0.00 | 63 | 1013.0 |
| 20260506003350 | 2 | 154 | 3.2 | 12.9 | 0.00 | 0.00 | 0.00 | 63 | 1012.8 |
| 20260506002851 | 1 | 167 | 3.2 | 12.9 | 0.00 | 0.00 | 0.00 | 63 | 1012.9 |
| 20260506002350 | 2 | 131 | 4.8 | 11.3 | 0.00 | 0.00 | 0.00 | 63 | 1012.9 |
| 20260506001838 | 2 | 160 | 4.8 | 11.3 | 0.00 | 0.00 | 0.00 | 63 | 1012.9 |
| 20260506001336 | 2 | 184 | 3.2 | 11.3 | 0.00 | 0.00 | 0.00 | 64 | 1012.9 |
| 20260506000834 | 2 | 180 | 4.8 | 11.3 | 0.00 | 0.00 | 0.00 | 62 | 1012.7 |
| 20260506000334 | 2 | 146 | 3.2 | 9.7 | 0.00 | 0.00 | 0.00 | 63 | 1012.6 |
| 20260505235834 | 2 | 126 | 4.8 | 16.1 | 0.00 | 0.00 | 0.00 | 62 | 1012.9 |
| 20260505235332 | 2 | 158 | 6.4 | 16.1 | 0.00 | 0.00 | 0.00 | 64 | 1012.4 |
| 20260505234833 | 2 | 137 | 6.4 | 9.7 | 0.00 | 0.00 | 0.00 | 63 | 1012.5 |
| 20260505234332 | 2 | 113 | 3.2 | 9.7 | 0.00 | 0.00 | 0.00 | 63 | 1012.8 |
| 20260505233831 | 2 | 155 | 3.2 | 9.7 | 0.00 | 0.00 | 0.00 | 63 | 1012.3 |
| 20260505233331 | 2 | 117 | 4.8 | 11.3 | 0.00 | 0.00 | 0.00 | 62 | 1012.6 |
| 20260505232331 | 2 | 148 | 1.6 | 12.9 | 0.00 | 0.00 | 0.00 | 63 | 1012.4 |
| 20260505231832 | 2 | 145 | 4.8 | 11.3 | 0.00 | 0.00 | 0.00 | 62 | 1012.6 |
| 20260505231328 | 2 | 164 | 1.6 | 12.9 | 0.00 | 0.00 | 0.00 | 62 | 1012.5 |
| 20260505230828 | 2 | 126 | 4.8 | 12.9 | 0.00 | 0.00 | 0.00 | 62 | 1012.2 |
| 20260505230326 | 2 | 33 | 3.2 | 11.3 | 0.00 | 0.00 | 0.00 | 61 | 1012.3 |
| 20260505225837 | 3 | 99 | 4.8 | 11.3 | 0.00 | 0.00 | 0.00 | 60 | 1012.3 |
| 20260505225327 | 3 | 149 | 3.2 | 9.7 | 0.00 | 0.00 | 0.00 | 60 | 1012.3 |
| 20260505224327 | 3 | 156 | 4.8 | 9.7 | 0.00 | 0.00 | 0.00 | 59 | 1012.3 |
| 20260505223822 | 3 | 94 | 3.2 | 12.9 | 0.00 | 0.00 | 0.00 | 59 | 1012.1 |
| 20260505223322 | 3 | 173 | 4.8 | 16.1 | 0.00 | 0.00 | 0.00 | 58 | 1012.2 |
| 20260505222832 | 3 | 143 | 3.2 | 16.1 | 0.00 | 0.00 | 0.00 | 58 | 1012.1 |
| 20260505222323 | 3 | 153 | 6.4 | 9.7 | 0.00 | 0.00 | 0.00 | 59 | 1012.1 |
| 20260505221322 | 3 | 45 | 3.2 | 16.1 | 0.00 | 0.00 | 0.00 | 59 | 1012.1 |
| 20260505220824 | 3 | 142 | 3.2 | 20.9 | 0.00 | 0.00 | 0.00 | 58 | 1012.1 |
| 20260505220322 | 3 | 147 | 4.8 | 20.9 | 0.00 | 0.00 | 0.00 | 58 | 1012.2 |
| 20260505215820 | 3 | 48 | 4.8 | 12.9 | 0.00 | 0.00 | 0.00 | 59 | 1012.1 |
| 20260505215320 | 3 | 167 | 8.0 | 11.3 | 0.00 | 0.00 | 0.00 | 60 | 1012.2 |
| 20260505214321 | 3 | 80 | 3.2 | 11.3 | 0.00 | 0.00 | 0.00 | 60 | 1012.4 |
| 20260505213819 | 3 | 125 | 9.7 | 11.3 | 0.00 | 0.00 | 0.00 | 61 | 1012.1 |
| 20260505213320 | 2 | 86 | 3.2 | 11.3 | 0.00 | 0.00 | 0.00 | 62 | 1012.5 |
| 20260505212819 | 3 | 107 | 6.4 | 9.7 | 0.00 | 0.00 | 0.00 | 60 | 1012.3 |
| 20260505211819 | 3 | 105 | 4.8 | 11.3 | 0.00 | 0.00 | 0.00 | 60 | 1012.4 |
| 20260505211317 | 3 | 144 | 4.8 | 9.7 | 0.00 | 0.00 | 0.00 | 59 | 1012.3 |
| 20260505210818 | 2 | 144 | 6.4 | 22.5 | 0.00 | 0.00 | 0.00 | 59 | 1012.5 |
| 20260505210319 | 2 | 114 | 1.6 | 22.5 | 0.00 | 0.00 | 0.00 | 61 | 1012.3 |
| 20260505205816 | 2 | 152 | 8.0 | 17.7 | 0.00 | 0.00 | 0.00 | 61 | 1012.5 |
| 20260505205318 | 2 | 105 | 11.3 | 17.7 | 0.00 | 0.00 | 0.00 | 61 | 1012.3 |
| 20260505204817 | 2 | 105 | 11.3 | 17.7 | 0.00 | 0.00 | 0.00 | 60 | 1012.4 |
| 20260505204317 | 2 | 94 | 8.0 | 9.7 | 0.00 | 0.00 | 0.00 | 58 | 1012.2 |
| 20260505203810 | 3 | 148 | 1.6 | 16.1 | 0.00 | 0.00 | 0.00 | 58 | 1012.5 |
| 20260505203310 | 3 | 191 | 6.4 | 16.1 | 0.00 | 0.00 | 0.00 | 59 | 1012.4 |
| 20260505202810 | 2 | 131 | 9.7 | 16.1 | 0.00 | 0.00 | 0.00 | 58 | 1012.5 |
| 20260505202312 | 2 | 179 | 6.4 | 14.5 | 0.00 | 0.00 | 0.00 | 61 | 1012.5 |
| 20260505201811 | 2 | 161 | 6.4 | 12.9 | 0.00 | 0.00 | 0.00 | 60 | 1012.5 |
| 20260505201311 | 2 | 151 | 0.0 | 12.9 | 0.00 | 0.00 | 0.00 | 62 | 1012.3 |
| 20260505200809 | 2 | 156 | 8.0 | 12.9 | 0.00 | 0.00 | 0.00 | 61 | 1012.4 |
| 20260505200309 | 2 | 60 | 6.4 | 8.0 | 0.00 | 0.00 | 0.00 | 61 | 1012.4 |
| 20260505195808 | 2 | 161 | 4.8 | 11.3 | 0.00 | 0.00 | 0.00 | 59 | 1012.2 |
| 20260505195309 | 2 | 158 | 8.0 | 14.5 | 0.00 | 0.00 | 0.00 | 58 | 1012.3 |
| 20260505194801 | 2 | 139 | 6.4 | 14.5 | 0.00 | 0.00 | 0.00 | 60 | 1012.4 |
| 20260505194302 | 2 | 108 | 3.2 | 14.5 | 0.00 | 0.00 | 0.00 | 60 | 1012.3 |
| 20260505193803 | 2 | 111 | 6.4 | 16.1 | 0.00 | 0.00 | 0.00 | 62 | 1012.3 |
| 20260505192800 | 2 | 159 | 6.4 | 16.1 | 0.00 | 0.00 | 0.00 | 62 | 1012.3 |
| 20260505192301 | 2 | 125 | 0.0 | 14.5 | 0.00 | 0.00 | 0.00 | 62 | 1012.1 |
| 20260505191801 | 2 | 157 | 6.4 | 14.5 | 0.00 | 0.00 | 0.00 | 62 | 1012.1 |
| 20260505191302 | 2 | 107 | 9.7 | 14.5 | 0.00 | 0.00 | 0.00 | 61 | 1012.0 |
| 20260505190801 | 2 | 114 | 1.6 | 14.5 | 0.00 | 0.00 | 0.00 | 62 | 1012.0 |
| 20260505190301 | 2 | 120 | 3.2 | 14.5 | 0.00 | 0.00 | 0.00 | 63 | 1012.1 |
| 20260505185801 | 2 | 129 | 11.3 | 22.5 | 0.00 | 0.00 | 0.00 | 63 | 1011.7 |
| 20260505185301 | 1 | 123 | 1.6 | 22.5 | 0.00 | 0.00 | 0.00 | 62 | 1012.1 |
| 20260505184801 | 1 | 106 | 4.8 | 17.7 | 0.00 | 0.00 | 0.00 | 65 | 1012.0 |
| 20260505184301 | 1 | 144 | 9.7 | 17.7 | 0.00 | 0.00 | 0.00 | 64 | 1012.2 |
| 20260505183301 | 1 | 168 | 3.2 | 19.3 | 0.00 | 0.00 | 0.00 | 65 | 1012.1 |
| 20260505182802 | 1 | 129 | 4.8 | 19.3 | 0.00 | 0.00 | 0.00 | 65 | 1012.0 |
| 20260505182305 | 1 | 142 | 3.2 | 14.5 | 0.00 | 0.00 | 0.00 | 64 | 1011.8 |
| 20260505181800 | 1 | 61 | 8.0 | 14.5 | 0.00 | 0.00 | 0.00 | 64 | 1011.6 |
| 20260505181301 | 1 | 124 | 4.8 | 12.9 | 0.00 | 0.00 | 0.00 | 65 | 1011.6 |
| 20260505180801 | 1 | 193 | 3.2 | 12.9 | 0.00 | 0.00 | 0.00 | 62 | 1011.6 |
| 20260505180303 | 1 | 118 | 4.8 | 12.9 | 0.00 | 0.00 | 0.00 | 61 | 1011.7 |
| 20260505175801 | 1 | 135 | 3.2 | 12.9 | 0.00 | 0.00 | 0.00 | 61 | 1011.7 |
| 20260505175301 | 2 | 117 | 4.8 | 12.9 | 0.00 | 0.00 | 0.00 | 62 | 1011.6 |
| 20260505174802 | 1 | 192 | 4.8 | 9.7 | 0.00 | 0.00 | 0.00 | 63 | 1011.7 |
| 20260505174303 | 1 | 186 | 4.8 | 11.3 | 0.00 | 0.00 | 0.00 | 64 | 1011.5 |
| 20260505173301 | 1 | 154 | 3.2 | 14.5 | 0.00 | 0.00 | 0.00 | 66 | 1011.5 |
| 20260505172802 | 1 | 174 | 4.8 | 14.5 | 0.00 | 0.00 | 0.00 | 64 | 1011.4 |
| 20260505171801 | 1 | 147 | 4.8 | 12.9 | 0.00 | 0.00 | 0.00 | 65 | 1011.3 |
| 20260505171259 | 1 | 135 | 4.8 | 12.9 | 0.00 | 0.00 | 0.00 | 65 | 1011.4 |
| 20260505170800 | 1 | 154 | 4.8 | 14.5 | 0.00 | 0.00 | 0.00 | 64 | 1011.2 |
| 20260505170258 | 1 | 94 | 3.2 | 14.5 | 0.00 | 0.00 | 0.00 | 66 | 1010.9 |
| 20260505165755 | 1 | 155 | 3.2 | 16.1 | 0.00 | 0.00 | 0.00 | 66 | 1010.8 |
| 20260505165254 | 1 | 110 | 4.8 | 16.1 | 0.00 | 0.00 | 0.00 | 66 | 1010.8 |
| 20260505164755 | 1 | 154 | 4.8 | 16.1 | 0.00 | 0.00 | 0.00 | 65 | 1010.9 |
| 20260505163751 | 0 | 150 | 4.8 | 11.3 | 0.00 | 0.00 | 0.00 | 72 | 1010.5 |
| 20260505162746 | 0 | 109 | 1.6 | 11.3 | 0.00 | 0.00 | 0.00 | 73 | 1010.6 |
| 20260505162246 | 0 | 156 | 3.2 | 12.9 | 0.00 | 0.00 | 0.00 | 74 | 1011.0 |
| 20260505161748 | 0 | 161 | 6.4 | 14.5 | 0.00 | 0.00 | 0.00 | 76 | 1010.7 |
| 20260505161248 | 0 | 148 | 4.8 | 14.5 | 0.00 | 0.00 | 0.00 | 77 | 1010.7 |
| 20260505160747 | 0 | 99 | 6.4 | 11.3 | 0.00 | 0.00 | 0.00 | 78 | 1010.9 |
| 20260505153230 | 0 | 133 | 4.8 | 12.9 | 0.00 | 0.00 | 0.00 | 71 | 1010.5 |
| 20260505152732 | 0 | 99 | 3.2 | 9.7 | 0.00 | 0.00 | 0.00 | 70 | 1010.3 |
| 20260505152229 | 0 | 90 | 3.2 | 11.3 | 0.00 | 0.00 | 0.00 | 70 | 1010.1 |
| 20260505151230 | 0 | 135 | 3.2 | 11.3 | 0.00 | 0.00 | 0.00 | 69 | 1010.0 |
| 20260505150731 | 0 | 197 | 3.2 | 11.3 | 0.00 | 0.00 | 0.00 | 69 | 1010.0 |
| 20260505140229 | 0 | 95 | 3.2 | 9.7 | 0.00 | 0.00 | 0.00 | 72 | 1009.7 |
| 20260505130214 | -1 | 221 | 0.0 | 16.1 | 0.00 | 0.00 | 0.00 | 78 | 1009.1 |
| 20260505124715 | -1 | 144 | 3.2 | 12.9 | 0.00 | 0.00 | 0.00 | 79 | 1008.6 |
| 20260505123714 | -1 | 68 | 4.8 | 12.9 | 0.00 | 0.00 | 0.00 | 80 | 1008.6 |
| 20260505123213 | -1 | 156 | 6.4 | 9.7 | 0.00 | 0.00 | 0.00 | 78 | 1008.5 |
| 20260505122714 | -1 | 86 | 3.2 | 9.7 | 0.00 | 0.00 | 0.00 | 78 | 1008.8 |
| 20260505122231 | -1 | 165 | 3.2 | 11.3 | 0.00 | 0.00 | 0.00 | 78 | 1008.5 |
| 20260505121715 | -1 | 130 | 4.8 | 11.3 | 0.00 | 0.00 | 0.00 | 78 | 1008.6 |
| 20260505121213 | -1 | 112 | 3.2 | 11.3 | 0.00 | 0.00 | 0.00 | 79 | 1008.3 |
| 20260505120714 | -1 | 109 | 4.8 | 11.3 | 0.00 | 0.00 | 0.00 | 77 | 1008.5 |
| 20260505120212 | -1 | 180 | 3.2 | 12.9 | 0.00 | 0.00 | 0.00 | 77 | 1008.3 |
| 20260505115715 | -1 | 175 | 1.6 | 12.9 | 0.00 | 0.00 | 0.00 | 77 | 1008.4 |
| 20260505115212 | -1 | 138 | 4.8 | 8.0 | 0.00 | 0.00 | 0.00 | 78 | 1008.3 |
| 20260505114714 | -1 | 131 | 4.8 | 9.7 | 0.00 | 0.00 | 0.00 | 78 | 1008.3 |
| 20260505113714 | -1 | 157 | 1.6 | 14.5 | 0.00 | 0.00 | 0.00 | 78 | 1008.5 |
| 20260505113213 | -1 | 135 | 3.2 | 14.5 | 0.00 | 0.00 | 0.00 | 78 | 1008.2 |
| 20260505112714 | -1 | 96 | 4.8 | 9.7 | 0.00 | 0.00 | 0.00 | 78 | 1008.2 |
| 20260505112214 | -1 | 145 | 1.6 | 9.7 | 0.00 | 0.00 | 0.00 | 78 | 1008.0 |
| 20260505111716 | -1 | 160 | 0.0 | 8.0 | 0.00 | 0.00 | 0.00 | 78 | 1008.1 |
| 20260505111212 | -1 | 166 | 1.6 | 8.0 | 0.00 | 0.00 | 0.00 | 78 | 1008.2 |
| 20260505110715 | -1 | 131 | 1.6 | 11.3 | 0.00 | 0.00 | 0.00 | 78 | 1008.3 |
| 20260505110212 | -1 | 63 | 1.6 | 11.3 | 0.00 | 0.00 | 0.00 | 79 | 1008.1 |
| 20260505102208 | -1 | 159 | 4.8 | 8.0 | 0.00 | 0.00 | 0.00 | 80 | 1007.8 |
| 20260505101711 | -1 | 121 | 3.2 | 8.0 | 0.00 | 0.00 | 0.00 | 80 | 1007.8 |
| 20260505101209 | -1 | 114 | 0.0 | 8.0 | 0.00 | 0.00 | 0.00 | 80 | 1007.9 |
| 20260505100704 | -1 | 119 | 6.4 | 6.4 | 0.00 | 0.00 | 0.00 | 81 | 1007.8 |
| 20260505100201 | -1 | 157 | 1.6 | 8.0 | 0.00 | 0.00 | 0.00 | 81 | 1008.1 |
| 20260505095704 | -1 | 75 | 0.0 | 12.9 | 0.00 | 0.00 | 0.00 | 81 | 1007.8 |
| 20260505095203 | -1 | 102 | 3.2 | 12.9 | 0.00 | 0.00 | 0.00 | 81 | 1007.8 |
| 20260505094703 | -1 | 108 | 6.4 | 8.0 | 0.00 | 0.00 | 0.00 | 81 | 1007.9 |
| 20260505093703 | -1 | 151 | 1.6 | 9.7 | 0.00 | 0.00 | 0.00 | 80 | 1007.7 |
| 20260505093203 | -1 | 70 | 4.8 | 8.0 | 0.00 | 0.00 | 0.00 | 81 | 1007.9 |
| 20260505092704 | -1 | 108 | 3.2 | 8.0 | 0.00 | 0.00 | 0.00 | 81 | 1007.6 |
| 20260505091703 | -1 | 99 | 3.2 | 8.0 | 0.00 | 0.00 | 0.00 | 81 | 1008.0 |
| 20260505091204 | -1 | 103 | 3.2 | 8.0 | 0.00 | 0.00 | 0.00 | 81 | 1007.8 |
| 20260505090705 | -1 | 151 | 3.2 | 6.4 | 0.00 | 0.00 | 0.00 | 81 | 1007.4 |
| 20260505090206 | -1 | 120 | 4.8 | 6.4 | 0.00 | 0.00 | 0.00 | 81 | 1007.7 |
| 20260505085705 | -1 | 117 | 3.2 | 6.4 | 0.00 | 0.00 | 0.00 | 81 | 1007.7 |
| 20260505085203 | -1 | 158 | 6.4 | 6.4 | 0.00 | 0.00 | 0.00 | 80 | 1007.5 |
| 20260505084204 | -1 | 105 | 3.2 | 6.4 | 0.00 | 0.00 | 0.00 | 81 | 1007.7 |
| 20260505083706 | -1 | 135 | 4.8 | 8.0 | 0.00 | 0.00 | 0.00 | 81 | 1007.4 |
| 20260505082706 | -1 | 112 | 0.0 | 12.9 | 0.00 | 0.00 | 0.00 | 81 | 1007.6 |
| 20260505082156 | -1 | 126 | 1.6 | 12.9 | 0.00 | 0.00 | 0.00 | 81 | 1007.4 |
| 20260505081653 | -1 | 161 | 4.8 | 8.0 | 0.00 | 0.00 | 0.00 | 81 | 1007.6 |
| 20260505081154 | -1 | 90 | 0.0 | 8.0 | 0.00 | 0.00 | 0.00 | 82 | 1007.5 |
| 20260505080145 | -1 | 103 | 1.6 | 8.0 | 0.00 | 0.00 | 0.00 | 81 | 1007.4 |
| 20260505075648 | -1 | 120 | 1.6 | 8.0 | 0.00 | 0.00 | 0.00 | 82 | 1007.2 |
| 20260505075140 | -1 | 96 | 1.6 | 11.3 | 0.00 | 0.00 | 0.00 | 82 | 1007.4 |
| 20260505074637 | -1 | 148 | 0.0 | 11.3 | 0.00 | 0.00 | 0.00 | 83 | 1007.3 |
| 20260505074136 | -1 | 180 | 4.8 | 9.7 | 0.00 | 0.00 | 0.00 | 82 | 1007.2 |
| 20260505073637 | -1 | 105 | 0.0 | 9.7 | 0.00 | 0.00 | 0.00 | 83 | 1007.2 |
| 20260505073136 | -1 | 90 | 4.8 | 6.4 | 0.00 | 0.00 | 0.00 | 84 | 1007.3 |
| 20260505072638 | -1 | 144 | 3.2 | 6.4 | 0.00 | 0.00 | 0.00 | 85 | 1007.2 |
| 20260505072135 | -2 | 98 | 0.0 | 6.4 | 0.00 | 0.00 | 0.00 | 86 | 1007.1 |
| 20260505071635 | -2 | 95 | 3.2 | 6.4 | 0.00 | 0.00 | 0.00 | 86 | 1007.2 |
| 20260505070635 | -2 | 90 | 3.2 | 4.8 | 0.00 | 0.00 | 0.00 | 85 | 1007.0 |
| 20260505070135 | -1 | 90 | 0.0 | 6.4 | 0.00 | 0.00 | 0.00 | 85 | 1007.2 |
| 20260505065137 | -1 | 96 | 6.4 | 6.4 | 0.00 | 0.00 | 0.00 | 85 | 1007.3 |
| 20260505064636 | -1 | 103 | 0.0 | 4.8 | 0.00 | 0.00 | 0.00 | 85 | 1007.2 |
| 20260505064135 | -1 | 114 | 1.6 | 4.8 | 0.00 | 0.00 | 0.00 | 84 | 1007.3 |
| 20260505063632 | -1 | 83 | 1.6 | 4.8 | 0.00 | 0.00 | 0.00 | 83 | 1007.3 |
| 20260505063130 | -1 | 105 | 0.0 | 6.4 | 0.00 | 0.00 | 0.00 | 82 | 1007.3 |
| 20260505062631 | -1 | 160 | 3.2 | 6.4 | 0.00 | 0.00 | 0.00 | 82 | 1007.4 |
| 20260505062129 | -1 | 100 | 3.2 | 4.8 | 0.00 | 0.00 | 0.00 | 82 | 1007.2 |
| 20260505061629 | -1 | 117 | 3.2 | 8.0 | 0.00 | 0.00 | 0.00 | 81 | 1007.1 |
| 20260505061129 | -1 | 90 | 1.6 | 11.3 | 0.00 | 0.00 | 0.00 | 81 | 1007.2 |
| 20260505060629 | -1 | 117 | 1.6 | 11.3 | 0.00 | 0.00 | 0.00 | 81 | 1007.2 |
| 20260505060129 | 0 | 104 | 6.4 | 8.0 | 0.00 | 0.00 | 0.00 | 80 | 1007.2 |
| 20260505055631 | 0 | 117 | 0.0 | 9.7 | 0.00 | 0.00 | 0.00 | 79 | 1007.2 |
| 20260505055131 | 0 | 146 | 3.2 | 9.7 | 0.00 | 0.00 | 0.00 | 80 | 1007.2 |
| 20260505054632 | 0 | 105 | 1.6 | 6.4 | 0.00 | 0.00 | 0.00 | 82 | 1007.4 |